K0VXP-1 Weather Reports


Display with metric or nautical units.
time (UTC)temp
F
wind
direction
speed
MPH
gust
MPH
rain 1hr
in
rain 24hr
in
rain mn
in
humidity
%
barometer
mb
20260507201530 54 213 5.0 11.0 0.00 0.00 0.00 44 1022.2
20260507200030 54 281 7.0 12.0 0.00 0.00 0.00 45 1022.4
20260507194530 54 212 6.0 14.0 0.00 0.00 0.00 48 1022.2
20260507193032 54 257 8.0 15.0 0.00 0.00 0.00 46 1022.4
20260507191533 53 220 4.0 15.0 0.00 0.00 0.00 46 1022.5
20260507190032 51 235 7.0 13.0 0.00 0.00 0.00 47 1022.7
20260507184532 51 211 3.0 11.0 0.00 0.09 0.00 46 1022.9
20260507183029 49 296 6.0 12.0 0.00 0.09 0.00 49 1023.2
20260507181531 48 271 3.0 9.0 0.00 0.09 0.00 47 1023.2
20260507180030 47 260 4.0 9.0 0.00 0.09 0.00 51 1023.6
20260507174539 45 244 3.0 8.0 0.00 0.14 0.00 50 1023.5
20260507173035 46 272 5.0 10.0 0.00 0.14 0.00 51 1023.7
20260507171533 46 258 5.0 10.0 0.00 0.14 0.00 54 1023.6
20260507170040 45 277 2.0 8.0 0.00 0.14 0.00 54 1023.7
20260507164533 45 338 4.0 8.0 0.00 0.19 0.00 54 1023.7
20260507163031 45 217 3.0 8.0 0.00 0.19 0.00 55 1023.9
20260507161530 43 283 2.0 7.0 0.00 0.19 0.00 57 1024.0
20260507160034 42 103 1.0 7.0 0.00 0.19 0.00 58 1024.1
20260507154529 39 176 2.0 5.0 0.00 0.19 0.00 62 1024.4
20260507153029 38 234 3.0 6.0 0.00 0.19 0.00 62 1024.9
20260507151531 39 212 4.0 7.0 0.00 0.19 0.00 60 1024.9
20260507150032 37 320 1.0 4.0 0.00 0.19 0.00 60 1025.3
20260507144530 37 313 1.0 4.0 0.00 0.19 0.00 62 1025.5
20260507143035 35 104 1.0 4.0 0.00 0.19 0.00 64 1025.4
20260507141530 34 5 1.0 4.0 0.00 0.19 0.00 67 1025.7
20260507140030 32 335 1.0 4.0 0.00 0.19 0.00 70 1025.5
20260507134534 31 11 3.0 5.0 0.00 0.19 0.00 72 1025.5
20260507133031 29 29 2.0 5.0 0.00 0.19 0.00 75 1025.3
20260507131536 29 25 3.0 5.0 0.00 0.19 0.00 77 1025.2
20260507130032 27 19 3.0 5.0 0.00 0.19 0.00 81 1025.1
20260507124534 25 42 3.0 5.0 0.00 0.19 0.00 82 1025.0
20260507123030 23 34 3.0 4.0 0.00 0.19 0.00 82 1025.0
20260507121531 23 38 4.0 6.0 0.00 0.19 0.00 82 1024.7
20260507120039 23 54 3.0 5.0 0.00 0.19 0.00 82 1024.7
20260507114529 23 39 3.0 5.0 0.00 0.19 0.00 81 1024.7
20260507113033 23 28 3.0 4.0 0.00 0.19 0.00 81 1024.7
20260507111530 23 22 3.0 5.0 0.00 0.19 0.00 80 1024.7
20260507110030 24 39 3.0 4.0 0.00 0.19 0.00 80 1024.8
20260507104531 24 32 2.0 4.0 0.00 0.19 0.00 79 1024.7
20260507103033 24 24 2.0 4.0 0.00 0.19 0.00 78 1024.7
20260507101532 25 31 3.0 5.0 0.00 0.19 0.00 77 1024.6
20260507100038 25 30 3.0 5.0 0.00 0.19 0.00 76 1024.4
20260507094532 25 28 2.0 4.0 0.00 0.19 0.00 74 1024.5
20260507093030 26 57 2.0 4.0 0.00 0.19 0.00 72 1024.5
20260507091531 26 34 2.0 4.0 0.00 0.19 0.00 72 1024.7
20260507090035 27 121 1.0 4.0 0.00 0.19 0.00 70 1024.8
20260507084533 27 0 0.0 3.0 0.00 0.19 0.00 70 1024.7
20260507083031 27 13 2.0 4.0 0.00 0.19 0.00 71 1024.6
20260507081542 26 63 3.0 4.0 0.00 0.19 0.00 71 1024.8
20260507080031 27 44 3.0 4.0 0.00 0.19 0.00 69 1025.0
20260507074551 28 90 3.0 5.0 0.00 0.19 0.00 69 1025.0
20260507073031 28 0 0.0 2.0 0.00 0.19 0.00 69 1025.3
20260507071530 28 0 1.0 8.0 0.00 0.19 0.00 70 1025.0
20260507070030 28 69 4.0 8.0 0.00 0.19 0.00 71 1025.0
20260507064533 27 69 6.0 9.0 0.00 0.19 0.00 71 1024.9
20260507063032 28 63 4.0 8.0 0.00 0.19 0.00 71 1025.3
20260507061534 28 66 4.0 6.0 0.00 0.19 0.00 70 1025.1
20260507060031 28 80 4.0 6.0 0.00 0.19 0.00 71 1025.0
20260507054529 28 73 4.0 9.0 0.00 0.19 0.19 70 1024.9
20260507053032 29 78 5.0 8.0 0.00 0.19 0.19 68 1024.9
20260507051532 29 86 4.0 7.0 0.00 0.19 0.19 68 1025.0
20260507050030 30 79 4.0 8.0 0.00 0.19 0.19 65 1024.9
20260507044530 31 93 4.0 8.0 0.00 0.19 0.19 63 1025.0
20260507043033 31 94 3.0 7.0 0.00 0.19 0.19 63 1025.0
20260507041530 31 88 3.0 7.0 0.00 0.19 0.19 62 1024.7
20260507040036 33 86 3.0 6.0 0.00 0.19 0.19 58 1024.3
20260507034530 34 32 0.0 4.0 0.00 0.19 0.19 54 1024.2
20260507033033 34 0 0.0 2.0 0.00 0.19 0.19 54 1024.0
20260507031531 34 5 2.0 5.0 0.00 0.19 0.19 55 1023.5
20260507030030 35 360 3.0 8.0 0.00 0.19 0.19 53 1023.4
20260507024538 36 276 3.0 10.0 0.00 0.19 0.19 52 1023.0
20260507023033 37 267 5.0 8.0 0.00 0.19 0.19 52 1022.7
20260507021531 38 257 5.0 10.0 0.00 0.19 0.19 51 1022.4
20260507020029 39 242 6.0 13.0 0.00 0.19 0.19 48 1022.2
20260507014543 41 263 7.0 16.0 0.00 0.19 0.19 46 1021.9
20260507013030 42 289 8.0 17.0 0.00 0.19 0.19 45 1021.8
20260507011533 42 246 10.0 16.0 0.00 0.19 0.19 44 1021.6
20260507010035 43 252 12.0 17.0 0.00 0.19 0.19 44 1021.2
20260507004532 43 217 13.0 20.0 0.00 0.19 0.19 43 1021.1
20260507003030 44 244 11.0 20.0 0.00 0.19 0.19 45 1020.8
20260507001532 45 293 7.0 18.0 0.00 0.19 0.19 44 1020.8
20260507000037 44 255 8.0 14.0 0.00 0.19 0.19 46 1020.5
20260506234531 42 246 9.0 15.0 0.00 0.19 0.19 49 1020.2
20260506233034 46 255 9.0 16.0 0.00 0.19 0.19 48 1020.0
20260506231530 43 229 8.0 21.0 0.00 0.19 0.19 49 1019.7
20260506230031 42 227 9.0 16.0 0.00 0.19 0.19 50 1019.5
20260506224531 43 242 6.0 14.0 0.00 0.19 0.19 50 1019.5
20260506223032 43 259 6.0 15.0 0.00 0.19 0.19 51 1019.5
20260506221532 42 227 5.0 13.0 0.00 0.19 0.19 54 1019.5
20260506220030 43 233 4.0 14.0 0.00 0.19 0.19 60 1019.5
20260506214529 41 231 6.0 12.0 0.00 0.19 0.19 61 1019.6
20260506213031 40 246 8.0 16.0 0.00 0.19 0.19 72 1019.4
20260506211527 38 276 4.0 11.0 0.00 0.19 0.19 76 1019.6
20260506210032 38 62 3.0 9.0 0.00 0.19 0.19 81 1019.6
20260506204530 38 46 7.0 15.0 0.00 0.19 0.19 84 1019.5
20260506203029 39 332 7.0 12.0 0.00 0.19 0.19 86 1019.5